User: anonymous   Login
Location: Unspecified
(0.0000°N, 0.0000°E)
Time: 18:22:14
(UTC+00:00)
Language:

Cosmos 1266 - Orbit

View from above orbital plane
View from above orbital plane
View from above satellite
View from above satellite

Ground track
Ground track

The orbit data is extracted from the following two-line orbital elements,

1 12409U 81037A   18109.84570434 -.00000089  00000-0  27562-5 0  9994
2 12409  64.7613 265.5501 0024050   2.6523 357.4661 13.90438204878490
Epoch (UTC): 19 April 2018 20:17:48
Eccentricity: 0.0024050
inclination: 64.7613°
perigee height: 909 km
apogee height: 944 km
right ascension of ascending node: 265.5501°
argument of perigee: 2.6523°
revolutions per day: 13.90438204
mean anomaly at epoch: 357.4661°
orbit number at epoch: 87849

The dashed part of the orbit path shows where the satellite is in the earth's shadow,  

DLR